Regional Weather Roundup
Issued by NWS

Home | Current Version | Previous Version | Text Only | Print | Product List | Glossary On
Versions: 1 2 3 4 5 6 7 8 9 10 11 12 13 14 15 16 17 18 19 20 21 22 23 24 25 26 27 28 29 30 31 32 33 34 35 36 37 38 39 40 41 42 43 44 45 46 47 48 49 50
000
ASUS43 KMKX 021400
RWRWI

WISCONSIN REGIONAL WEATHER ROUNDUP
NATIONAL WEATHER SERVICE MILWAUKEE/SULLIVAN WI
900 AM CDT THU OCT 02 2014

NOTE: "FAIR" INDICATES FEW OR NO CLOUDS BELOW 12,000 FEET WITH NO
SIGNIFICANT WEATHER AND/OR OBSTRUCTIONS TO VISIBILITY.

WIZ001-002-006>008-014>016-023>028-021500-
NORTHWEST WISCONSIN

CITY           SKY/WX    TMP DP  RH WIND       PRES   REMARKS
SUPERIOR ARPT  CLOUDY    54  53  96 CALM      29.85R
ASHLAND        CLOUDY    56  55  97 CALM      29.86S
HAYWARD        CLOUDY    56  55  97 CALM      29.85S FOG
SIREN          CLOUDY    55  54  97 CALM      29.85S
CUMBERLAND     CLOUDY    54  54 100 CALM      29.85S FOG
RICE LAKE      CLOUDY    56  55  96 CALM      29.86S FOG
CHETEK         CLOUDY    55  55 100 CALM      29.85S FOG
LADYSMITH      CLOUDY    55  54  97 CALM      29.87F FOG
EAU CLAIRE     NOT AVBL
MENOMONIE      MOSUNNY   57  56  95 N3        29.84F FOG
NEW RICHMOND   CLOUDY    56  56 100 CALM      29.85F FOG
OSCEOLA        CLOUDY    57  57 100 CALM      29.87S FOG
$$

WIZ003>005-009-010-017-018-021500-
NORTH CENTRAL WISCONSIN

CITY           SKY/WX    TMP DP  RH WIND       PRES   REMARKS
MANITOWISH WTR CLOUDY    53  53 100 SE3       29.86F FOG
ARBOR VITAE    FOG       55  53  95 SE3       29.87S VSB 1/2
WOODRUFF       FOG       55  53  95 SE3       29.87S VSB 1/2
RHINELANDER    CLOUDY    52  52 100 E5        29.88F FOG
EAGLE RIVER    FOG       52  52 100 CALM      29.88S VSB 1
LAND O LAKES   FOG       53  53 100 CALM      29.89S VSB 1/4
PHILLIPS       CLOUDY    53  52  99 CALM      29.86S FOG
TOMAHAWK       CLOUDY    51  50  97 CALM      29.88S FOG
MEDFORD        CLOUDY    54  54  98 E3        29.86S FOG
MERRILL        CLOUDY    55  54  96 E3        29.87S FOG
$$

WIZ029-030-035-036-043>047-021500-
CENTRAL WISCONSIN

CITY           SKY/WX    TMP DP  RH WIND       PRES   REMARKS
WAUSAU         CLOUDY    56  53  90 E6        29.85F FOG
MOSINEE        NOT AVBL
MARSHFIELD     CLOUDY    57  55  93 E5        29.85F FOG
STEVENS POINT  CLOUDY    54  53  98 E3        29.86F FOG
WAUPACA        CLOUDY    59  57  96 CALM      29.86F FOG
WAUTOMA        NOT AVBL
WISC RAPIDS    CLOUDY    58  56  93 CALM      29.87R
CAMP DOUGLAS   NOT AVBL
$$

WIZ011>013-019>022-031-037>040-048>050-021500-
NORTHEAST WISCONSIN

CITY           SKY/WX    TMP DP  RH WIND       PRES   REMARKS
ANTIGO         CLOUDY    53  53 100 CALM      29.88S FOG
SHAWANO        CLOUDY    58  56  92 E3        29.87F FOG
OCONTO         CLOUDY    58  58 100 CALM      29.86S
STURGEON BAY   NOT AVBL
GREEN BAY      CLOUDY    60  58  92 CALM      29.86S FOG
MANITOWOC      NOT AVBL
APPLETON       CLOUDY    61  57  88 CALM      29.86S FOG
CLINTONVILLE   CLOUDY    55  55 100 CALM      29.86F FOG
OSHKOSH        CLOUDY    61  58  90 CALM      29.85S
$$

WIZ032>034-041-042-053>061-021500-
SOUTHWEST WISCONSIN

CITY           SKY/WX    TMP DP  RH WIND       PRES   REMARKS
LA CROSSE      FOG       60  58  92 CALM      29.84S VSB 1/2
SPARTA         CLOUDY    57  56  97 CALM      29.85S FOG
VIROQUA        CLOUDY    62  62 100 E3        29.84S
BOSCOBEL       CLOUDY    62  59  90 CALM      29.85R FOG
PRAIRIE DU CHI CLOUDY    61  59  92 CALM      29.84R FOG
PLATTEVILLE    CLOUDY    64  60  88 SE5       29.86R
$$

WIZ056-057-062-063-064-067-068-021500-
SOUTH CENTRAL WISCONSIN

CITY           SKY/WX    TMP DP  RH WIND       PRES   REMARKS
REEDSBURG      CLOUDY    59  58  94 CALM      29.85S
BARABOO/DELLS  CLOUDY    59  55  89 CALM      29.86R FOG
LONE ROCK      NOT AVBL
MINERAL POINT  CLOUDY    63  59  88 SE3       29.86R
MADISON        LGT RAIN  61  57  87 CALM      29.85R
MIDDLETON      CLOUDY    61  58  92 CALM      29.85S
WATERTOWN      CLOUDY    61  61  99 CALM      29.84F
MONROE         LGT RAIN  63  61  94 S3        29.85R
JANESVILLE     CLOUDY    66  63  88 CALM      29.85R
$$

WIZ051-052-058>065-066-070>072-021500-
SOUTHEAST WISCONSIN

CITY           SKY/WX    TMP DP  RH WIND       PRES   REMARKS
MILWAUKEE      CLOUDY    65  59  81 S7        29.85F
WAUKESHA       CLOUDY    61  57  88 S5        29.86F FOG
MILWAUKEE/TIMM MOSUNNY   63  57  82 S3        29.86S HAZE
RACINE         CLOUDY    64  58  80 S12       29.88S
BURLINGTON     CLOUDY    61  58  92 CALM      29.85F
KENOSHA        NOT AVBL
FOND DU LAC    CLOUDY    61  58  90 S5        29.86S
SHEBOYGAN      CLOUDY    60  58  92 S5        29.86S FOG
WEST BEND      RAIN      59  55  88 CALM      29.86S
JUNEAU         CLOUDY    61  58  90 CALM      29.86S
$$

LSZ147-162-021500-
LAKE SUPERIOR

STATION/POSITION TIME  TEMP    WIND        PRES    WAVE
                       AIR SEA DIR/SP/G            HT/PER
                 (UTC) (F)     (DEG/KT/KT) (MB)    (FT/S)
W MID LAKE BUOY  1250   52 50  220/  4/  4 1010.9R   1
DEVILS ISLAND    1300   53     240/  5/  5 1011.4R
SAXON HARBOR     1340   56        CALM     1010.8S
$$

LMZ867-665-643>646-021500-
LAKE MICHIGAN

STATION/POSITION TIME  TEMP    WIND        PRES    WAVE
                       AIR SEA DIR/SP/G            HT/PER
                 (UTC) (F)     (DEG/KT/KT) (MB)    (FT/S)
CHAMBERS ISLAND  1300   57     130/  4/  7 1011.9S
S GREEN BAY BUOY 1300   59                 1012.2R
N MID LAKE BUOY  1250   58 58  140/ 14/ 14 1012.4F   2/ 4
NORTHPORT PIER   1300   57     160/  7/ 11 1012.2S
KEWAUNEE LAKESHO 1300   56     170/  3/  5 1010.8R
SHEBOYGAN LAKESH 1300   58 56  150/  8/  8 1011.5S
PORT WASHINGTON  1300   60     180/  2/  4 1011.9S
ATWATER BUOY     1300   60     160/ 10/ 12 1012.1S
MILWAUKEE LAKESH 1300   60     160/  8/  8   N/A
S MID LAKE BUOY  1250   63 62  160/ 19/ 21 1011.8F   3/ 5
KENOSHA   LAKESH 1300   62     170/ 14/ 16 1011.2S
$$

TC  - TEMPERATURE IN CELSIUS
VSB - VISIBILITY IN STATUTE MILES
WCI - WIND CHILL INDEX
HX  - HEAT INDEX




USA.gov is the U.S. government's official web portal to all federal, state and local government web resources and services.